CW7104 Weather Reports


time (UTC)temp
C
wind
direction
speed
KPH
gust
KPH
rain 1hr
cm
rain 24hr
cm
rain mn
cm
humidity
%
barometer
mb
20260504042905 14 148 0.0 0.0 0.00 0.00 0.00 56 1011.8
20260504042405 14 167 0.0 0.0 0.00 0.00 0.00 56 1011.8
20260504041405 14 142 0.0 0.0 0.00 0.00 0.00 56 1011.9
20260504040904 14 155 0.0 0.0 0.00 0.00 0.00 56 1012.1
20260504040405 14 168 0.0 0.0 0.00 0.00 0.00 56 1012.1
20260504035904 14 171 0.0 0.0 0.00 0.00 0.00 56 1012.1
20260504035405 14 189 0.0 0.0 0.00 0.00 0.00 56 1012.1
20260504034905 14 191 0.0 0.0 0.00 0.00 0.00 55 1012.2
20260504034404 14 148 0.0 0.0 0.00 0.00 0.00 55 1012.2
20260504033905 14 173 0.0 0.0 0.00 0.00 0.00 55 1012.2
20260504033404 15 199 0.0 0.0 0.00 0.00 0.00 55 1012.2
20260504032905 15 179 0.0 0.0 0.00 0.00 0.00 54 1012.4
20260504032405 15 166 0.0 0.0 0.00 0.00 0.00 54 1012.4
20260504031905 15 157 0.0 0.0 0.00 0.00 0.00 53 1012.5
20260504031404 15 174 0.0 0.0 0.00 0.00 0.00 53 1012.6
20260504030905 15 137 0.0 0.0 0.00 0.00 0.00 53 1012.6
20260504030405 15 193 0.0 0.0 0.00 0.00 0.00 52 1012.7
20260504025905 15 140 0.0 0.0 0.00 0.00 0.00 52 1012.7
20260504024905 15 196 0.0 0.0 0.00 0.00 0.00 52 1012.7
20260504024405 15 196 0.0 0.0 0.00 0.00 0.00 51 1012.7
20260504023905 15 173 0.0 0.0 0.00 0.00 0.00 51 1012.7
20260504023404 15 182 0.0 0.0 0.00 0.00 0.00 51 1012.6
20260504022905 15 182 0.0 0.0 0.00 0.00 0.00 51 1012.6
20260504022405 15 184 0.0 0.0 0.00 0.00 0.00 51 1012.7
20260504021904 16 184 0.0 0.0 0.00 0.00 0.00 51 1012.7
20260504021404 16 199 0.0 0.0 0.00 0.00 0.00 51 1012.7
20260504020905 16 202 0.0 0.0 0.00 0.00 0.00 51 1012.8
20260504020405 16 161 0.0 0.0 0.00 0.00 0.00 50 1012.8
20260504015904 16 168 0.0 0.0 0.00 0.00 0.00 49 1012.7
20260504014905 16 169 0.0 0.0 0.00 0.00 0.00 48 1012.7
20260504014404 16 170 0.0 0.0 0.00 0.00 0.00 48 1012.7
20260504013905 16 175 0.0 0.0 0.00 0.00 0.00 49 1012.7
20260504013405 16 167 0.0 0.0 0.00 0.00 0.00 48 1012.6
20260504012905 16 169 0.0 0.0 0.00 0.00 0.00 47 1012.8
20260504012405 16 172 0.0 0.0 0.00 0.00 0.00 47 1012.8
20260504011905 16 172 0.0 0.0 0.00 0.00 0.00 47 1012.8
20260504011404 17 172 0.0 0.0 0.00 0.00 0.00 46 1012.9
20260504010905 17 172 0.0 0.0 0.00 0.00 0.00 45 1013.0
20260504010405 17 175 0.0 0.0 0.00 0.00 0.00 45 1013.0
20260504005904 17 155 0.0 0.0 0.00 0.00 0.00 44 1013.0
20260504005405 17 155 0.0 0.0 0.00 0.00 0.00 44 1012.8
20260504004904 17 158 0.0 0.0 0.00 0.00 0.00 44 1012.9
20260504003904 18 179 0.0 0.0 0.00 0.00 0.00 43 1012.8
20260504003405 18 197 0.0 0.0 0.00 0.00 0.00 42 1012.6
20260504002404 18 227 0.0 0.0 0.00 0.00 0.00 41 1012.7
20260504001905 18 202 0.0 1.6 0.00 0.00 0.00 40 1012.6
20260504000905 19 171 0.0 9.7 0.00 0.00 0.00 39 1012.6
20260504000405 20 160 0.0 11.3 0.00 0.00 0.00 39 1012.6
20260503235904 20 179 0.0 1.6 0.00 0.00 0.00 38 1012.6
20260503235405 20 155 0.0 1.6 0.00 0.00 0.00 37 1012.5
20260503234404 20 189 0.0 1.6 0.00 0.00 0.00 37 1012.4
20260503233904 20 256 4.8 16.1 0.00 0.00 0.00 36 1012.3
20260503232404 21 140 0.0 14.5 0.00 0.00 0.00 36 1012.5
20260503231905 21 162 6.4 20.9 0.00 0.00 0.00 36 1012.5
20260503231405 21 184 9.7 25.7 0.00 0.00 0.00 35 1012.4
20260503230904 21 273 8.0 19.3 0.00 0.00 0.00 35 1012.5
20260503230404 21 225 0.0 11.3 0.00 0.00 0.00 36 1012.6
20260503225904 21 182 3.2 19.3 0.00 0.00 0.00 35 1012.7
20260503225405 21 171 4.8 16.1 0.00 0.00 0.00 35 1012.8
20260503224905 21 157 11.3 25.7 0.00 0.00 0.00 35 1012.9
20260503224405 21 175 4.8 24.1 0.00 0.00 0.00 35 1013.1
20260503223905 21 183 9.7 29.0 0.00 0.00 0.00 35 1013.1
20260503223405 21 183 9.7 19.3 0.00 0.00 0.00 37 1013.1
20260503222905 21 191 4.8 22.5 0.00 0.00 0.00 36 1013.1
20260503222404 21 173 11.3 24.1 0.00 0.00 0.00 36 1013.3
20260503221405 21 188 9.7 22.5 0.00 0.00 0.00 37 1013.5
20260503220904 21 217 3.2 16.1 0.00 0.00 0.00 35 1013.5
20260503220404 21 267 3.2 20.9 0.00 0.00 0.00 36 1013.5
20260503214405 21 246 4.8 32.2 0.00 0.00 0.00 36 1014.0
20260503213904 21 263 8.0 24.1 0.00 0.00 0.00 36 1014.1
20260503213404 21 150 6.4 19.3 0.00 0.00 0.00 38 1014.2
20260503212904 21 215 8.0 24.1 0.00 0.00 0.00 36 1014.4
20260503212404 21 252 8.0 22.5 0.00 0.00 0.00 36 1014.5
20260503211904 21 155 12.9 29.0 0.00 0.00 0.00 36 1014.6
20260503211404 21 247 14.5 25.7 0.00 0.00 0.00 35 1014.7
20260503210906 21 278 1.6 12.9 0.00 0.00 0.00 37 1014.7
20260503210405 21 178 11.3 32.2 0.00 0.00 0.00 36 1014.8
20260503205904 21 185 9.7 20.9 0.00 0.00 0.00 38 1014.9
20260503205404 21 166 8.0 19.3 0.00 0.00 0.00 37 1015.2
20260503204904 21 143 3.2 19.3 0.00 0.00 0.00 38 1015.4
20260503204404 21 172 9.7 25.7 0.00 0.00 0.00 37 1015.5
20260503203404 21 159 9.7 20.9 0.00 0.00 0.00 37 1015.6
20260503202904 21 163 11.3 24.1 0.00 0.00 0.00 37 1015.8
20260503202405 21 159 9.7 25.7 0.00 0.00 0.00 38 1016.0
20260503201404 20 258 9.7 24.1 0.00 0.00 0.00 39 1016.3
20260503200904 20 251 4.8 19.3 0.00 0.00 0.00 39 1016.3
20260503200404 20 287 11.3 29.0 0.00 0.00 0.00 37 1016.4
20260503195904 20 162 3.2 19.3 0.00 0.00 0.00 40 1016.6
20260503195405 20 184 9.7 22.5 0.00 0.00 0.00 39 1016.8
20260503194905 20 170 9.7 19.3 0.00 0.00 0.00 40 1016.9
20260503194405 20 186 12.9 24.1 0.00 0.00 0.00 40 1017.1
20260503193904 20 278 6.4 19.3 0.00 0.00 0.00 41 1017.2
20260503193404 20 326 14.5 35.4 0.00 0.00 0.00 40 1017.2
20260503192905 20 218 4.8 14.5 0.00 0.00 0.00 42 1017.2
20260503192405 20 169 4.8 22.5 0.00 0.00 0.00 41 1017.4
20260503191904 20 146 11.3 33.8 0.00 0.00 0.00 41 1017.3
20260503191405 20 159 11.3 20.9 0.00 0.00 0.00 40 1017.5
20260503190904 20 146 8.0 29.0 0.00 0.00 0.00 41 1017.4
20260503190404 20 192 11.3 22.5 0.00 0.00 0.00 41 1017.6
20260503185905 19 142 9.7 22.5 0.00 0.00 0.00 41 1017.7
20260503185404 20 315 8.0 19.3 0.00 0.00 0.00 42 1017.8
20260503184904 20 238 3.2 19.3 0.00 0.00 0.00 42 1017.8
20260503184404 20 331 1.6 14.5 0.00 0.00 0.00 42 1017.9
20260503183904 19 147 1.6 12.9 0.00 0.00 0.00 43 1018.3
20260503183404 19 137 3.2 16.1 0.00 0.00 0.00 42 1018.3
20260503182904 19 160 8.0 19.3 0.00 0.00 0.00 42 1018.5
20260503182404 18 192 4.8 25.7 0.00 0.00 0.00 43 1018.6
20260503181904 18 155 8.0 20.9 0.00 0.00 0.00 44 1018.7
20260503181405 18 171 11.3 24.1 0.00 0.00 0.00 43 1018.8
20260503180904 18 265 8.0 24.1 0.00 0.00 0.00 42 1018.8
20260503180404 18 162 8.0 20.9 0.00 0.00 0.00 44 1018.8
20260503175904 18 156 11.3 24.1 0.00 0.00 0.00 45 1019.0
20260503174904 18 197 11.3 20.9 0.00 0.00 0.00 45 1019.4
20260503174405 18 165 8.0 20.9 0.00 0.00 0.00 47 1019.5
20260503173904 18 182 9.7 19.3 0.00 0.00 0.00 45 1019.6
20260503173404 18 300 4.8 19.3 0.00 0.00 0.00 47 1019.7
20260503172905 18 146 9.7 29.0 0.00 0.00 0.00 47 1019.7
20260503172404 18 324 4.8 20.9 0.00 0.00 0.00 46 1019.9
20260503171904 18 150 6.4 22.5 0.00 0.00 0.00 47 1020.0
20260503171404 18 359 3.2 16.1 0.00 0.00 0.00 46 1020.1
20260503150904 15 138 4.8 14.5 0.00 0.00 0.00 56 1021.2
20260503131404 8 165 0.0 0.0 0.00 0.00 0.00 82 1021.4
20260503130904 8 157 0.0 0.0 0.00 0.00 0.00 82 1021.3
20260503130404 7 170 0.0 0.0 0.00 0.00 0.00 82 1021.4
20260503110404 3 335 0.0 0.0 0.00 0.00 0.00 82 1020.8
20260503090405 2 335 0.0 0.0 0.00 0.00 0.00 81 1020.8
20260503080905 3 335 0.0 0.0 0.00 0.00 0.00 81 1020.7
20260503080405 3 335 0.0 0.0 0.00 0.00 0.00 81 1020.7
20260503072906 3 335 0.0 0.0 0.00 0.00 0.00 80 1020.7
20260503072405 3 335 0.0 0.0 0.00 0.00 0.00 80 1020.7
20260503071905 3 335 0.0 0.0 0.00 0.00 0.00 80 1020.7
20260503071405 3 335 0.0 0.0 0.00 0.00 0.00 80 1020.6
20260503070905 3 335 0.0 0.0 0.00 0.00 0.00 80 1020.8
20260503070405 3 335 0.0 0.0 0.00 0.00 0.00 80 1020.7
20260503054405 4 335 0.0 0.0 0.00 0.00 0.00 80 1020.9
20260503053905 4 335 0.0 0.0 0.00 0.00 0.00 79 1020.8
20260503053405 4 335 0.0 0.0 0.00 0.00 0.00 79 1020.8
20260503052905 4 335 0.0 0.0 0.00 0.00 0.00 79 1020.9
20260503052404 4 335 0.0 0.0 0.00 0.00 0.00 79 1020.9
20260503051905 5 335 0.0 0.0 0.00 0.00 0.00 79 1020.9
20260503050905 5 334 0.0 0.0 0.00 0.00 0.00 79 1020.9
20260503050405 5 335 0.0 0.0 0.00 0.00 0.00 79 1020.8
20260503045904 5 335 0.0 0.0 0.00 0.00 0.00 79 1020.8
20260503045405 5 335 0.0 0.0 0.00 0.00 0.00 78 1020.8
20260503044905 5 335 0.0 0.0 0.00 0.00 0.00 78 1020.7
20260503044405 5 335 0.0 0.0 0.00 0.00 0.00 78 1020.6
20260503043905 5 334 0.0 0.0 0.00 0.00 0.00 78 1020.7
20260503043405 5 335 0.0 0.0 0.00 0.00 0.00 78 1020.7